Regional Weather Roundup
Issued by NWS Kansas City/Pleasant Hill, MO

Home | Current Version | Previous Version | Graphics & Text | Print | Product List | Glossary Off
Versions: 1 2 3 4 5 6 7 8 9 10 11 12 13 14 15 16 17 18 19 20 21 22 23 24 25 26 27 28 29 30 31 32 33 34 35 36 37 38 39 40 41 42 43 44 45 46 47 48 49 50

000
ASUS43 KEAX 261910
RWREAX

WEATHER ROUNDUP FOR EASTERN KANSAS AND NORTHWEST MISSOURI
NATIONAL WEATHER SERVICE KANSAS CITY/PLEASANT HILL MO
100 PM CST SUN FEB 26 2017

KSZ040-057-103>105-MOZ028-029-037-043-262000-
...KANSAS CITY METROPOLITAN AREA...

CITY           SKY/WX    TMP DP  RH WIND       PRES   REMARKS
K.C. INTL      PTSUNNY   47  28  47 S10       29.98F
K.C. DOWNTOWN  CLOUDY    51  25  36 S9        29.99F
LEES SUMMIT    CLOUDY    46  26  45 S13G18    30.00F
OLATHE - IXD   MOSUNNY   49  25  39 S9G21     29.99F
OLATHE - OJC   SUNNY     47  26  44 S9G22     29.98F
LAWRENCE       CLOUDY    50  23  34 S9G23     29.98F

$$

MOZ001>008-011>017-020>025-030>033-038>040-044>046-053-054-262000-
...NORTHERN AND CENTRAL MISSOURI...

CITY           SKY/WX    TMP DP  RH WIND       PRES   REMARKS
ST. JOSEPH     SUNNY     51  30  44 SW13      29.96F
MOSBY          CLOUDY    46  28  49 SW6       30.00F
WARRENSBURG    CLOUDY    45  25  45 SE6       30.02F
WHITEMAN AFB   CLOUDY    45  21  38 S10       30.02F
CLINTON        CLOUDY    46  25  42 S14       30.04F
SEDALIA        CLOUDY    47  21  35 S10       30.04F
WARSAW         NOT AVBL
CHILLICOTHE      N/A     49  32  52 S10G21    30.00F
KIRKSVILLE     PTSUNNY   49  30  48 SW13G21   29.98F

$$

MOZ041-047>049-056>058-063>065-088>090-097-262000-
...EASTERN AND SOUTHERN MISSOURI...

CITY           SKY/WX    TMP DP  RH WIND       PRES   REMARKS
ST. LOUIS INTL CLOUDY    45  15  30 S12       30.11F
SPIRIT OF STL  CLOUDY    46  15  28 S8        30.10F
COLUMBIA       CLOUDY    45  19  35 S10       30.05F
JEFFERSON CITY CLOUDY    46  18  32 S12       30.06F
ROLLA          CLOUDY    45  19  35 S14       30.06F
OSAGE BEACH    CLOUDY    46  22  38 SW17      30.06F
SPRINGFIELD    LGT RAIN  37  34  89 SE9       30.05F WCI  30
BRANSON        CLOUDY    46  23  39 E5        30.06F
JOPLIN         CLOUDY    40  38  93 E9        30.02F WCI  34
WEST PLAINS    CLOUDY    46  20  35 S8        30.09F

$$

IAZ060-094-KSZ022-034>040-054-083-096-NEZ052-066-093-262000-
...KANSAS...SOUTHEAST NEBRASKA AND IOWA...

CITY           SKY/WX    TMP DP  RH WIND       PRES   REMARKS
TOPEKA         PTSUNNY   51  24  34 S10G16    29.96F
MANHATTAN      SUNNY     50  24  36 SW7       29.95F
EMPORIA        SUNNY     49  24  37 S8G20     29.95F
CHANUTE        CLOUDY    49  33  54 SE14G22   29.96F
WICHITA        MOSUNNY   49  24  37 N5        29.93F
OMAHA          MOSUNNY   41  21  44 NW8       29.95F
LINCOLN        SUNNY     42  23  46 W6        29.97F
FALLS CITY     MOSUNNY   52  25  35 SW12G22   29.93F
LAMONI         PTSUNNY   47  28  47 SW15      29.93F
DES MOINES     MOSUNNY   48  25  40 W22G29    29.91F

$$




USA.gov is the U.S. government's official web portal to all federal, state and local government web resources and services.